Time,TemperatureF,DewpointF,PressureIn,WindDirection,WindDirectionDegrees,WindSpeedMPH,WindSpeedGustMPH,Humidity,HourlyPrecipIn,Conditions,Clouds,dailyrainin,SoftwareType,DateUTC
2013-03-21 00:09:00,22.4,16.0,30.04,NW,310,1.0,-999.0,76,-99.99,,,0.00,weatherlink.com 1.10,2013-03-21 04:09:00,
2013-03-21 00:24:00,21.9,16.0,30.04,WNW,300,6.0,-999.0,77,-99.99,,,0.00,weatherlink.com 1.10,2013-03-21 04:24:00,
2013-03-21 00:39:00,21.8,15.0,30.03,WNW,283,2.0,-999.0,76,-99.99,,,0.00,weatherlink.com 1.10,2013-03-21 04:39:00,
2013-03-21 00:54:00,21.9,14.0,30.03,WNW,289,6.0,-999.0,72,-99.99,,,0.00,weatherlink.com 1.10,2013-03-21 04:54:00,
2013-03-21 01:09:00,22.0,14.0,30.03,NW,304,8.0,-999.0,70,-99.99,,,0.00,weatherlink.com 1.10,2013-03-21 05:09:00,
2013-03-21 01:24:00,22.0,14.0,30.03,West,278,6.0,-999.0,71,-99.99,,,0.00,weatherlink.com 1.10,2013-03-21 05:24:00,
2013-03-21 01:39:00,21.6,14.0,30.03,NW,319,2.0,-999.0,71,-99.99,,,0.00,weatherlink.com 1.10,2013-03-21 05:39:00,
2013-03-21 01:55:00,21.3,14.0,30.03,West,277,7.0,-999.0,73,-99.99,,,0.00,weatherlink.com 1.10,2013-03-21 05:55:00,
2013-03-21 02:10:00,21.1,14.0,30.02,WNW,300,5.0,-999.0,74,-99.99,,,0.00,weatherlink.com 1.10,2013-03-21 06:10:00,
2013-03-21 02:25:00,21.0,16.0,30.02,WNW,292,4.0,-999.0,82,-99.99,,,0.00,weatherlink.com 1.10,2013-03-21 06:25:00,
2013-03-21 02:40:00,20.6,17.0,30.02,NW,304,4.0,-999.0,85,-99.99,,,0.00,weatherlink.com 1.10,2013-03-21 06:40:00,
2013-03-21 02:55:00,20.2,15.0,30.02,NW,312,5.0,-999.0,81,-99.99,,,0.00,weatherlink.com 1.10,2013-03-21 06:55:00,
2013-03-21 03:10:00,20.1,15.0,30.02,NW,316,5.0,-999.0,81,-99.99,,,0.00,weatherlink.com 1.10,2013-03-21 07:10:00,
2013-03-21 03:25:00,20.0,15.0,30.02,North,360,3.0,-999.0,80,-99.99,,,0.00,weatherlink.com 1.10,2013-03-21 07:25:00,
2013-03-21 03:40:00,20.0,15.0,30.02,WNW,290,2.0,-999.0,80,-99.99,,,0.00,weatherlink.com 1.10,2013-03-21 07:40:00,
2013-03-21 03:55:00,20.0,15.0,30.01,NNW,341,3.0,-999.0,79,-99.99,,,0.00,weatherlink.com 1.10,2013-03-21 07:55:00,
2013-03-21 04:10:00,19.6,13.0,30.02,NW,323,6.0,-999.0,76,-99.99,,,0.00,weatherlink.com 1.10,2013-03-21 08:10:00,
2013-03-21 04:25:00,19.2,13.0,30.02,WNW,296,4.0,-999.0,76,-99.99,,,0.00,weatherlink.com 1.10,2013-03-21 08:25:00,
2013-03-21 04:40:00,19.0,13.0,30.01,NW,317,4.0,-999.0,78,-99.99,,,0.00,weatherlink.com 1.10,2013-03-21 08:40:00,
2013-03-21 04:55:00,18.7,13.0,30.01,NNW,327,0.0,-999.0,78,-99.99,,,0.00,weatherlink.com 1.10,2013-03-21 08:55:00,
2013-03-21 05:10:00,18.4,13.0,30.01,WNW,303,3.0,-999.0,79,-99.99,,,0.00,weatherlink.com 1.10,2013-03-21 09:10:00,
2013-03-21 05:25:00,18.0,13.0,30.01,WNW,298,1.0,-999.0,80,-99.99,,,0.00,weatherlink.com 1.10,2013-03-21 09:25:00,
2013-03-21 05:40:00,17.7,13.0,30.01,NNW,330,2.0,-999.0,81,-99.99,,,0.00,weatherlink.com 1.10,2013-03-21 09:40:00,
2013-03-21 05:55:00,17.5,12.0,30.01,North,355,2.0,-999.0,80,-99.99,,,0.00,weatherlink.com 1.10,2013-03-21 09:55:00,
2013-03-21 06:10:00,17.2,12.0,30.02,WNW,298,2.0,-999.0,81,-99.99,,,0.00,weatherlink.com 1.10,2013-03-21 10:10:00,
2013-03-21 06:25:00,17.1,12.0,30.02,NW,322,0.0,-999.0,81,-99.99,,,0.00,weatherlink.com 1.10,2013-03-21 10:25:00,
2013-03-21 06:40:00,16.9,12.0,30.02,NNW,329,6.0,-999.0,81,-99.99,,,0.00,weatherlink.com 1.10,2013-03-21 10:40:00,
2013-03-21 06:55:00,16.8,12.0,30.03,WNW,299,3.0,-999.0,81,-99.99,,,0.00,weatherlink.com 1.10,2013-03-21 10:55:00,
2013-03-21 07:10:00,16.7,12.0,30.02,WNW,298,2.0,-999.0,80,-99.99,,,0.00,weatherlink.com 1.10,2013-03-21 11:10:00,
2013-03-21 07:25:00,16.5,12.0,30.03,WNW,298,0.0,-999.0,81,-99.99,,,0.00,weatherlink.com 1.10,2013-03-21 11:25:00,
2013-03-21 07:40:00,16.3,11.0,30.03,WNW,299,2.0,-999.0,81,-99.99,,,0.00,weatherlink.com 1.10,2013-03-21 11:40:00,
2013-03-21 07:55:00,16.3,11.0,30.04,WNW,296,4.0,-999.0,81,-99.99,,,0.00,weatherlink.com 1.10,2013-03-21 11:55:00,
2013-03-21 08:10:00,16.4,12.0,30.05,NNW,328,1.0,-999.0,81,-99.99,,,0.00,weatherlink.com 1.10,2013-03-21 12:10:00,
2013-03-21 08:25:00,17.0,12.0,30.05,WNW,302,0.0,-999.0,81,-99.99,,,0.00,weatherlink.com 1.10,2013-03-21 12:25:00,
2013-03-21 08:40:00,17.3,12.0,30.05,NNW,331,2.0,-999.0,80,-99.99,,,0.00,weatherlink.com 1.10,2013-03-21 12:40:00,
2013-03-21 08:55:00,17.7,12.0,30.04,NW,306,3.0,-999.0,78,-99.99,,,0.00,weatherlink.com 1.10,2013-03-21 12:55:00,
2013-03-21 09:10:00,18.4,11.0,30.05,NNW,342,5.0,-999.0,74,-99.99,,,0.00,weatherlink.com 1.10,2013-03-21 13:10:00,
2013-03-21 09:40:00,19.7,12.0,30.05,NW,325,5.0,-999.0,72,-99.99,,,0.00,weatherlink.com 1.10,2013-03-21 13:40:00,
2013-03-21 09:55:00,20.0,12.0,30.05,West,267,3.0,-999.0,71,-99.99,,,0.00,weatherlink.com 1.10,2013-03-21 13:55:00,
2013-03-21 10:10:00,20.7,12.0,30.05,NNW,333,4.0,-999.0,70,-99.99,,,0.00,weatherlink.com 1.10,2013-03-21 14:10:00,
2013-03-21 10:25:00,21.5,13.0,30.05,WNW,298,7.0,-999.0,70,-99.99,,,0.00,weatherlink.com 1.10,2013-03-21 14:25:00,
2013-03-21 10:40:00,22.1,14.0,30.06,West,269,3.0,-999.0,71,-99.99,,,0.00,weatherlink.com 1.10,2013-03-21 14:40:00,
2013-03-21 10:55:00,22.7,14.0,30.06,WNW,294,5.0,-999.0,68,-99.99,,,0.00,weatherlink.com 1.10,2013-03-21 14:55:00,
2013-03-21 11:11:00,23.7,14.0,30.06,West,263,5.0,-999.0,66,-99.99,,,0.00,weatherlink.com 1.10,2013-03-21 15:11:00,
2013-03-21 11:26:00,24.3,13.0,30.07,West,271,4.0,-999.0,62,-99.99,,,0.00,weatherlink.com 1.10,2013-03-21 15:26:00,
2013-03-21 11:41:00,25.4,14.0,30.06,NW,317,5.0,-999.0,61,-99.99,,,0.00,weatherlink.com 1.10,2013-03-21 15:41:00,
2013-03-21 11:56:00,25.8,14.0,30.07,WSW,248,5.0,-999.0,61,-99.99,,,0.00,weatherlink.com 1.10,2013-03-21 15:56:00,
2013-03-21 12:26:00,26.8,16.0,30.07,West,281,3.0,-999.0,63,-99.99,,,0.00,weatherlink.com 1.10,2013-03-21 16:26:00,
2013-03-21 12:56:00,27.9,15.0,30.06,West,268,5.0,-999.0,58,-99.99,,,0.00,weatherlink.com 1.10,2013-03-21 16:56:00,
2013-03-21 13:26:00,28.8,13.0,30.05,West,259,4.0,-999.0,53,-99.99,,,0.00,weatherlink.com 1.10,2013-03-21 17:26:00,
2013-03-21 13:56:00,30.0,14.0,30.05,NNW,329,8.0,-999.0,52,-99.99,,,0.00,weatherlink.com 1.10,2013-03-21 17:56:00,
2013-03-21 14:11:00,30.4,15.0,30.05,WSW,250,9.0,-999.0,53,-99.99,,,0.00,weatherlink.com 1.10,2013-03-21 18:11:00,
2013-03-21 14:26:00,31.0,15.0,30.04,WNW,296,3.0,-999.0,52,-99.99,,,0.00,weatherlink.com 1.10,2013-03-21 18:26:00,
2013-03-21 14:41:00,31.6,15.0,30.04,SW,224,9.0,-999.0,50,-99.99,,,0.00,weatherlink.com 1.10,2013-03-21 18:41:00,
2013-03-21 14:56:00,32.5,16.0,30.05,West,271,5.0,-999.0,52,-99.99,,,0.00,weatherlink.com 1.10,2013-03-21 18:56:00,
2013-03-21 15:11:00,32.3,16.0,30.04,WSW,258,12.0,-999.0,52,-99.99,,,0.00,weatherlink.com 1.10,2013-03-21 19:11:00,
2013-03-21 15:41:00,33.3,17.0,30.03,NW,326,6.0,-999.0,52,-99.99,,,0.00,weatherlink.com 1.10,2013-03-21 19:41:00,
2013-03-21 15:56:00,33.6,17.0,30.02,WSW,251,5.0,-999.0,51,-99.99,,,0.00,weatherlink.com 1.10,2013-03-21 19:56:00,
2013-03-21 16:11:00,34.0,17.0,30.02,WSW,244,8.0,-999.0,51,-99.99,,,0.00,weatherlink.com 1.10,2013-03-21 20:11:00,
2013-03-21 16:41:00,33.3,15.0,30.01,WNW,291,7.0,-999.0,47,-99.99,,,0.00,weatherlink.com 1.10,2013-03-21 20:41:00,
2013-03-21 16:56:00,33.4,17.0,30.01,NW,318,8.0,-999.0,51,-99.99,,,0.00,weatherlink.com 1.10,2013-03-21 20:56:00,
2013-03-21 17:41:00,34.4,18.0,30.01,West,263,7.0,-999.0,51,-99.99,,,0.00,weatherlink.com 1.10,2013-03-21 21:41:00,
2013-03-21 17:56:00,34.2,16.0,30.00,NW,326,7.0,-999.0,48,-99.99,,,0.00,weatherlink.com 1.10,2013-03-21 21:56:00,
2013-03-21 18:11:00,34.6,17.0,30.00,WNW,286,3.0,-999.0,49,-99.99,,,0.00,weatherlink.com 1.10,2013-03-21 22:11:00,
2013-03-21 18:26:00,34.4,17.0,30.00,West,268,5.0,-999.0,50,-99.99,,,0.00,weatherlink.com 1.10,2013-03-21 22:26:00,
2013-03-21 18:41:00,34.3,16.0,30.01,WSW,250,7.0,-999.0,48,-99.99,,,0.00,weatherlink.com 1.10,2013-03-21 22:41:00,
2013-03-21 18:56:00,34.1,16.0,30.01,NW,321,4.0,-999.0,48,-99.99,,,0.00,weatherlink.com 1.10,2013-03-21 22:56:00,
2013-03-21 19:11:00,33.9,16.0,30.01,West,272,3.0,-999.0,48,-99.99,,,0.00,weatherlink.com 1.10,2013-03-21 23:11:00,
2013-03-21 19:26:00,33.7,16.0,30.01,NW,304,4.0,-999.0,49,-99.99,,,0.00,weatherlink.com 1.10,2013-03-21 23:26:00,
2013-03-21 19:41:00,33.1,17.0,30.01,West,274,3.0,-999.0,52,-99.99,,,0.00,weatherlink.com 1.10,2013-03-21 23:41:00,
2013-03-21 19:56:00,32.4,18.0,30.02,West,269,1.0,-999.0,55,-99.99,,,0.00,weatherlink.com 1.10,2013-03-21 23:56:00,
2013-03-21 20:11:00,31.7,18.0,30.02,West,269,1.0,-999.0,57,-99.99,,,0.00,weatherlink.com 1.10,2013-03-22 00:11:00,
2013-03-21 20:26:00,31.1,17.0,30.02,West,269,0.0,-999.0,57,-99.99,,,0.00,weatherlink.com 1.10,2013-03-22 00:26:00,
2013-03-21 20:41:00,30.6,20.0,30.02,West,269,0.0,-999.0,66,-99.99,,,0.00,weatherlink.com 1.10,2013-03-22 00:41:00,
2013-03-21 20:56:00,29.5,20.0,30.02,West,269,0.0,-999.0,67,-99.99,,,0.00,weatherlink.com 1.10,2013-03-22 00:56:00,
2013-03-21 21:11:00,29.1,21.0,30.02,West,269,0.0,-999.0,72,-99.99,,,0.00,weatherlink.com 1.10,2013-03-22 01:11:00,
2013-03-21 21:26:00,28.9,23.0,30.02,West,269,0.0,-999.0,77,-99.99,,,0.00,weatherlink.com 1.10,2013-03-22 01:26:00,
2013-03-21 21:41:00,28.5,21.0,30.02,West,269,1.0,-999.0,74,-99.99,,,0.00,weatherlink.com 1.10,2013-03-22 01:41:00,
2013-03-21 21:56:00,28.4,20.0,30.03,West,269,0.0,-999.0,72,-99.99,,,0.00,weatherlink.com 1.10,2013-03-22 01:56:00,
2013-03-21 22:11:00,28.6,20.0,30.03,West,269,0.0,-999.0,69,-99.99,,,0.00,weatherlink.com 1.10,2013-03-22 02:11:00,
2013-03-21 22:26:00,28.5,20.0,30.03,West,269,0.0,-999.0,69,-99.99,,,0.00,weatherlink.com 1.10,2013-03-22 02:26:00,
2013-03-21 22:41:00,28.1,19.0,30.03,West,269,0.0,-999.0,70,-99.99,,,0.00,weatherlink.com 1.10,2013-03-22 02:41:00,
2013-03-21 22:56:00,27.8,21.0,30.04,West,269,0.0,-999.0,74,-99.99,,,0.00,weatherlink.com 1.10,2013-03-22 02:56:00,
2013-03-21 23:11:00,27.0,21.0,30.04,West,269,0.0,-999.0,77,-99.99,,,0.00,weatherlink.com 1.10,2013-03-22 03:11:00,
2013-03-21 23:26:00,26.9,20.0,30.04,West,269,0.0,-999.0,75,-99.99,,,0.00,weatherlink.com 1.10,2013-03-22 03:26:00,
2013-03-21 23:41:00,27.1,20.0,30.04,West,269,0.0,-999.0,73,-99.99,,,0.00,weatherlink.com 1.10,2013-03-22 03:41:00,
2013-03-21 23:56:00,27.4,19.0,30.04,West,269,0.0,-999.0,71,-99.99,,,0.00,weatherlink.com 1.10,2013-03-22 03:56:00,